TimeCDT,TemperatureF,Dew PointF,Humidity,Sea Level PressureIn,VisibilityMPH,Wind Direction,Wind SpeedMPH,Gust SpeedMPH,PrecipitationIn,Events,Conditions,WindDirDegrees,DateUTC
12:15 AM,56.1,46.4,70,30.14,10.0,North,6.9,-,N/A,,Clear,10,2013-09-13 05:15:00
12:35 AM,55.6,46.8,72,30.14,10.0,NNE,11.5,-,N/A,,Clear,20,2013-09-13 05:35:00
12:55 AM,55.9,46.6,71,30.15,10.0,NNE,10.4,-,N/A,,Clear,20,2013-09-13 05:55:00
1:15 AM,54.7,46.6,74,30.15,10.0,NNE,9.2,-,N/A,,Clear,20,2013-09-13 06:15:00
1:35 AM,53.6,50.0,88,30.15,10.0,NNE,9.2,-,N/A,,Clear,20,2013-09-13 06:35:00
1:55 AM,53.2,50.5,91,30.15,10.0,North,6.9,-,N/A,,Clear,10,2013-09-13 06:55:00
2:15 AM,53.4,51.8,94,30.16,10.0,North,5.8,-,N/A,,Clear,360,2013-09-13 07:15:00
2:35 AM,52.7,51.8,97,30.16,10.0,North,5.8,-,N/A,,Clear,360,2013-09-13 07:35:00
2:55 AM,52.0,52.0,100,30.16,10.0,North,10.4,-,N/A,,Clear,360,2013-09-13 07:55:00
3:15 AM,52.0,52.0,100,30.17,10.0,North,8.1,-,N/A,,Clear,350,2013-09-13 08:15:00
3:35 AM,50.5,50.5,100,30.17,10.0,North,10.4,-,N/A,,Clear,10,2013-09-13 08:35:00
3:55 AM,50.5,50.2,99,30.17,10.0,North,12.7,-,N/A,,Clear,10,2013-09-13 08:55:00
4:15 AM,50.4,48.6,94,30.17,10.0,North,10.4,-,N/A,,Clear,10,2013-09-13 09:15:00
4:35 AM,49.3,48.9,99,30.17,10.0,North,10.4,-,N/A,,Clear,10,2013-09-13 09:35:00
4:55 AM,49.3,47.8,95,30.18,10.0,NNE,9.2,-,N/A,,Clear,20,2013-09-13 09:55:00
5:15 AM,47.3,47.3,100,30.18,10.0,North,8.1,-,N/A,,Clear,10,2013-09-13 10:15:00
5:35 AM,46.6,46.6,100,30.18,10.0,North,8.1,-,N/A,,Clear,10,2013-09-13 10:35:00
5:55 AM,46.4,46.4,100,30.19,10.0,North,9.2,-,N/A,,Clear,10,2013-09-13 10:55:00
6:15 AM,46.6,46.6,100,30.20,10.0,North,9.2,-,N/A,,Clear,10,2013-09-13 11:15:00
6:35 AM,45.9,45.9,100,30.20,10.0,North,9.2,-,N/A,,Clear,10,2013-09-13 11:35:00
6:55 AM,45.7,45.7,100,30.20,10.0,North,8.1,-,N/A,,Clear,10,2013-09-13 11:55:00
7:15 AM,46.6,46.6,100,30.21,10.0,North,6.9,-,N/A,,Clear,10,2013-09-13 12:15:00
7:35 AM,49.3,40.5,72,30.22,10.0,North,9.2,-,N/A,,Clear,10,2013-09-13 12:35:00
7:55 AM,50.5,40.3,68,30.21,10.0,North,10.4,-,N/A,,Clear,10,2013-09-13 12:55:00
8:15 AM,52.0,40.6,65,30.21,10.0,NNE,11.5,-,N/A,,Clear,20,2013-09-13 13:15:00
8:35 AM,53.1,41.4,64,30.22,10.0,NNE,9.2,17.3,N/A,,Clear,20,2013-09-13 13:35:00
8:55 AM,54.5,41.9,62,30.22,10.0,North,6.9,-,N/A,,Clear,10,2013-09-13 13:55:00
9:15 AM,55.0,40.6,58,30.22,10.0,NE,12.7,-,N/A,,Clear,40,2013-09-13 14:15:00
9:35 AM,56.3,40.1,55,30.23,10.0,NNE,11.5,17.3,N/A,,Clear,30,2013-09-13 14:35:00
9:55 AM,56.7,39.4,52,30.23,10.0,NNE,11.5,19.6,N/A,,Clear,30,2013-09-13 14:55:00
10:15 AM,57.4,39.2,51,30.23,10.0,North,8.1,16.1,N/A,,Clear,10,2013-09-13 15:15:00
10:35 AM,57.7,38.1,48,30.23,10.0,North,12.7,16.1,N/A,,Clear,10,2013-09-13 15:35:00
10:55 AM,59.0,37.4,45,30.23,10.0,North,13.8,-,N/A,,Clear,10,2013-09-13 15:55:00
11:15 AM,60.1,37.8,44,30.23,10.0,NNE,9.2,-,N/A,,Clear,30,2013-09-13 16:15:00
11:35 AM,61.3,36.1,39,30.22,10.0,North,9.2,-,N/A,,Clear,360,2013-09-13 16:35:00
11:55 AM,61.2,34.7,37,30.22,10.0,North,6.9,-,N/A,,Clear,10,2013-09-13 16:55:00
12:15 PM,62.2,33.8,35,30.22,10.0,NNE,4.6,-,N/A,,Clear,20,2013-09-13 17:15:00
12:35 PM,62.8,33.1,33,30.21,10.0,North,10.4,-,N/A,,Clear,10,2013-09-13 17:35:00
12:55 PM,63.5,33.6,33,30.21,10.0,North,9.2,-,N/A,,Clear,360,2013-09-13 17:55:00
1:15 PM,63.7,33.3,32,30.20,10.0,NE,10.4,17.3,N/A,,Clear,40,2013-09-13 18:15:00
1:35 PM,63.7,34.0,33,30.19,10.0,North,11.5,17.3,N/A,,Clear,360,2013-09-13 18:35:00
1:55 PM,65.3,33.1,30,30.19,10.0,North,8.1,17.3,N/A,,Clear,350,2013-09-13 18:55:00
2:15 PM,65.3,30.6,27,30.19,10.0,North,5.8,16.1,N/A,,Clear,360,2013-09-13 19:15:00
2:35 PM,65.3,29.8,26,30.18,10.0,North,4.6,17.3,N/A,,Clear,360,2013-09-13 19:35:00
2:55 PM,65.3,32.4,29,30.17,10.0,North,6.9,-,N/A,,Clear,360,2013-09-13 19:55:00
3:15 PM,66.6,31.3,27,30.17,10.0,NNE,10.4,-,N/A,,Clear,20,2013-09-13 20:15:00
3:35 PM,66.2,32.2,28,30.16,10.0,North,3.5,9.2,N/A,,Clear,350,2013-09-13 20:35:00
3:55 PM,66.9,33.6,29,30.16,10.0,North,6.9,-,N/A,,Clear,360,2013-09-13 20:55:00
4:15 PM,66.6,32.2,28,30.15,10.0,North,9.2,-,N/A,,Clear,350,2013-09-13 21:15:00
4:35 PM,66.2,33.8,30,30.15,10.0,North,4.6,-,N/A,,Clear,350,2013-09-13 21:35:00
4:55 PM,66.4,34.3,31,30.15,10.0,North,4.6,-,N/A,,Clear,350,2013-09-13 21:55:00
5:15 PM,65.5,33.8,31,30.15,10.0,NNE,8.1,-,N/A,,Clear,30,2013-09-13 22:15:00
5:35 PM,65.3,34.5,32,30.15,10.0,NNE,6.9,-,N/A,,Clear,30,2013-09-13 22:35:00
5:55 PM,64.6,34.7,33,30.15,10.0,NNE,9.2,-,N/A,,Clear,20,2013-09-13 22:55:00
6:15 PM,63.5,34.9,34,30.15,10.0,NNE,6.9,-,N/A,,Clear,20,2013-09-13 23:15:00
6:35 PM,62.2,36.5,38,30.15,10.0,NE,5.8,-,N/A,,Clear,40,2013-09-13 23:35:00
6:55 PM,60.3,36.7,41,30.15,10.0,NNE,5.8,-,N/A,,Clear,30,2013-09-13 23:55:00
7:15 PM,59.0,36.7,43,30.15,10.0,NNE,5.8,-,N/A,,Clear,30,2013-09-14 00:15:00
7:35 PM,57.6,37.0,46,30.15,10.0,NNE,4.6,-,N/A,,Clear,30,2013-09-14 00:35:00
7:55 PM,57.7,37.4,47,30.15,10.0,NE,5.8,-,N/A,,Clear,40,2013-09-14 00:55:00
8:15 PM,57.2,37.4,48,30.16,10.0,NE,4.6,-,N/A,,Clear,40,2013-09-14 01:15:00
8:35 PM,56.5,37.0,48,30.16,10.0,NE,5.8,-,N/A,,Clear,50,2013-09-14 01:35:00
8:55 PM,55.9,36.9,49,30.16,10.0,NE,5.8,-,N/A,,Clear,50,2013-09-14 01:55:00
9:15 PM,54.7,37.9,53,30.16,10.0,ENE,4.6,-,N/A,,Clear,70,2013-09-14 02:15:00
9:35 PM,53.8,37.2,54,30.16,10.0,ENE,5.8,-,N/A,,Clear,60,2013-09-14 02:35:00
9:55 PM,53.2,37.4,55,30.16,10.0,ENE,3.5,-,N/A,,Clear,70,2013-09-14 02:55:00
10:15 PM,53.2,37.4,55,30.16,10.0,ENE,5.8,-,N/A,,Clear,70,2013-09-14 03:15:00
10:35 PM,52.7,37.6,56,30.15,10.0,East,4.6,-,N/A,,Clear,80,2013-09-14 03:35:00
10:55 PM,51.8,37.8,59,30.15,10.0,East,3.5,-,N/A,,Clear,80,2013-09-14 03:55:00
11:15 PM,51.4,37.8,60,30.15,10.0,East,3.5,-,N/A,,Clear,90,2013-09-14 04:15:00
11:35 PM,50.9,38.1,62,30.15,10.0,East,4.6,-,N/A,,Clear,90,2013-09-14 04:35:00
11:55 PM,50.9,38.5,62,30.16,10.0,East,5.8,-,N/A,,Clear,100,2013-09-14 04:55:00